Weather History for KDKK - January, 2013

Change the Weather History Date:

Tuesday, January 29, 2013

  Actual Average (KBUF) Record (KBUF)
Temperature  
Mean Temperature 48 °F 24 °F  
Max Temperature 60 °F 31 °F 59 °F (1914)
Min Temperature 35 °F 18 °F -7 °F (1977)
Degree Days  
Heating Degree Days 18 41  
Month to date heating degree days 1167  
Since 1 July heating degree days 3582  
Cooling Degree Days 0 0  
Month to date cooling degree days 0  
Year to date cooling degree days 0  
Moisture  
Dew Point 44 °F    
Average Humidity 91    
Maximum Humidity 100    
Minimum Humidity 72    
Precipitation  
Precipitation 0.55 in 0.09 in 0.99 in (2006)
Month to date precipitation 3.00  
Year to date precipitation 3.00  
Snow  
Snow 0.00 in 0.70 in 4.40 in (2012)
Month to date snowfall 23.8  
Since 1 July snowfall 60.0  
Snow Depth -    
Sea Level Pressure  
Sea Level Pressure 29.91 in    
Wind  
Wind Speed 7 mph (SSW)    
Max Wind Speed 25 mph    
Max Gust Speed 36 mph    
Visibility 5 miles    
Events Fog , Rain , Thunderstorm    
T = Trace of Precipitation, MM = Missing Value Source: NWS Daily Summary

Daily Weather History Graph

Daily Weather History Graph

Search for Another Location

Airport or City:

Trip Planner

Search our weather history database for the weather conditions in past years. The results will help you decide how hot, cold, wet, or windy it might be!

Date:

Astronomy

Jan. 29, 2013 Rise Set
Actual Time 7:33 AM EST 5:27 PM EST
Civil Twilight 7:03 AM EST 5:57 PM EST
Nautical Twilight 6:29 AM EST 6:31 PM EST
Astronomical Twilight 5:56 AM EST 7:04 PM EST
Moon 8:26 PM EST (1/29) 8:25 AM EST (1/29)
Length of Visible Light 10h 53m
Length of Day
9h 53m
Waning Gibbous, 94% of the Moon is Illuminated
Jan 29
Waning Gibbous
Feb 3
Last Quarter
Feb 10
New
Feb 17
First Quarter
Feb 25
Full

Hourly Weather History & Observations

Time (EST) Temp. Windchill Dew Point Humidity Pressure Visibility Wind Dir Wind Speed Gust Speed Precip Events Conditions
12:00 AM 39.2 °F 34.2 °F 37.4 °F 93% 30.01 in 4.0 mi WSW 6.9 mph - N/A   Overcast
12:04 AM 37.4 °F 31.4 °F 37.4 °F 100% 30.01 in 5.0 mi WSW 8.1 mph - N/A   Overcast
12:53 AM 37.9 °F 32.7 °F 37.0 °F 97% 30.04 in 6.0 mi SW 6.9 mph - N/A   Overcast
1:00 AM 37.4 °F 32.8 °F 37.4 °F 100% 30.02 in 5.0 mi SW 5.8 mph - N/A   Overcast
1:22 AM 37.4 °F 32.1 °F 37.4 °F 100% 30.02 in 3.0 mi SW 6.9 mph - N/A   Overcast
1:37 AM 37.4 °F 32.8 °F 37.4 °F 100% 30.02 in 4.0 mi WSW 5.8 mph - N/A   Overcast
1:50 AM 37.4 °F 32.1 °F 37.4 °F 100% 30.03 in 6.0 mi WSW 6.9 mph - N/A   Overcast
1:53 AM 37.9 °F 32.7 °F 37.0 °F 97% 30.05 in 6.0 mi WSW 6.9 mph - N/A   Overcast
2:38 AM 37.4 °F 33.8 °F 37.4 °F 100% 30.04 in 3.0 mi Variable 4.6 mph - N/A   Overcast
2:53 AM 37.0 °F 33.3 °F 36.0 °F 96% 30.06 in 2.5 mi West 4.6 mph - N/A   Overcast
3:14 AM 37.4 °F - 35.6 °F 93% 30.03 in 2.0 mi Calm Calm - N/A   Overcast
3:23 AM 37.4 °F - 35.6 °F 93% 30.02 in 1.2 mi Calm Calm - N/A   Overcast
3:25 AM 37.4 °F 33.8 °F 35.6 °F 93% 30.02 in 0.8 mi WNW 4.6 mph - N/A   Overcast
3:53 AM 37.0 °F - 36.0 °F 96% 30.04 in 0.5 mi Calm Calm - N/A Fog Fog
4:53 AM 37.0 °F - 36.0 °F 96% 30.05 in 0.5 mi Calm Calm - N/A Fog Fog
5:53 AM 36.0 °F 33.3 °F 35.1 °F 97% 30.02 in 0.2 mi East 3.5 mph - N/A Fog Fog
6:53 AM 36.0 °F - 35.1 °F 97% 30.02 in 0.2 mi Calm Calm - N/A Fog Fog
7:09 AM 35.6 °F - 35.6 °F 100% 30.01 in 0.2 mi Calm Calm - N/A Fog Fog
7:25 AM 35.6 °F - 35.6 °F 100% 30.00 in 0.2 mi Calm Calm - N/A Fog Fog
7:38 AM 35.6 °F - 35.6 °F 100% 30.00 in 0.2 mi Calm Calm - N/A Fog Fog
7:48 AM 35.6 °F - 35.6 °F 100% 30.00 in 0.2 mi Calm Calm - N/A Fog Fog
7:53 AM 36.0 °F - 36.0 °F 100% 30.01 in 0.5 mi Calm Calm - N/A Fog Fog
8:08 AM 37.4 °F 34.9 °F 35.6 °F 93% 29.98 in 1.2 mi ENE 3.5 mph - N/A   Overcast
8:19 AM 37.4 °F 34.9 °F 35.6 °F 93% 29.98 in 2.5 mi NE 3.5 mph - N/A   Overcast
8:29 AM 37.4 °F 33.8 °F 35.6 °F 93% 29.97 in 3.0 mi NE 4.6 mph - N/A   Overcast
8:53 AM 37.0 °F 34.5 °F 37.0 °F 100% 29.99 in 4.0 mi NNE 3.5 mph - N/A   Overcast
9:53 AM 39.9 °F - 39.0 °F 97% 29.94 in 6.0 mi Calm Calm - 0.00 in   Overcast
10:53 AM 50.0 °F - 46.0 °F 86% 29.89 in 10.0 mi SSW 9.2 mph - 0.00 in Rain Light Rain
11:32 AM 48.2 °F - 46.4 °F 93% 29.97 in 1.8 mi WNW 25.3 mph 35.7 mph 0.06 in Rain Rain
11:34 AM 48.2 °F - 44.6 °F 87% 29.95 in 1.2 mi WNW 18.4 mph 35.7 mph 0.13 in Rain , Thunderstorm Heavy Rain
11:36 AM 46.4 °F 40.7 °F 44.6 °F 93% 29.94 in 0.8 mi West 12.7 mph 35.7 mph 0.19 in Rain , Thunderstorm Heavy Rain
11:45 AM 46.4 °F 41.9 °F 46.4 °F 100% 29.93 in 1.0 mi SW 9.2 mph 17.3 mph 0.24 in Rain , Thunderstorm Rain
11:48 AM 48.2 °F - 46.4 °F 93% 29.92 in 1.8 mi SSW 9.2 mph - 0.25 in Rain , Thunderstorm Rain
11:51 AM 48.2 °F - 46.4 °F 93% 29.92 in 2.0 mi SSW 8.1 mph - 0.26 in Rain , Thunderstorm Rain
11:53 AM 48.0 °F - 46.9 °F 96% 29.93 in 2.5 mi South 9.2 mph - 0.27 in Rain , Thunderstorm Rain
12:00 PM 48.2 °F - 46.4 °F 93% 29.90 in 2.5 mi South 8.1 mph - 0.02 in Rain , Thunderstorm Rain
12:03 PM 48.2 °F - 46.4 °F 93% 29.90 in 3.0 mi South 6.9 mph - 0.03 in Rain Rain
12:14 PM 48.2 °F - 46.4 °F 93% 29.91 in 2.5 mi SSW 9.2 mph - 0.07 in Rain Heavy Rain
12:23 PM 48.2 °F - 48.2 °F 100% 29.88 in 8.0 mi South 6.9 mph - 0.07 in Rain Light Rain
12:53 PM 51.1 °F - 48.0 °F 89% 29.88 in 10.0 mi SSW 9.2 mph - 0.11 in Rain Light Rain
1:13 PM 51.8 °F - 48.2 °F 88% 29.86 in 10.0 mi SSW 9.2 mph - 0.00 in   Overcast
1:53 PM 52.0 °F - 48.0 °F 86% 29.85 in 10.0 mi SSW 12.7 mph 20.7 mph 0.00 in   Overcast
2:53 PM 53.1 °F - 48.9 °F 86% 29.85 in 4.0 mi SSW 15.0 mph - 0.00 in Rain Light Rain
3:06 PM 51.8 °F - 48.2 °F 88% 29.84 in 2.0 mi SSW 12.7 mph 21.9 mph 0.00 in Rain Light Rain
3:23 PM 53.6 °F - 50.0 °F 88% 29.83 in 4.0 mi South 12.7 mph 26.5 mph 0.00 in   Overcast
3:53 PM 53.1 °F - 50.0 °F 89% 29.83 in 10.0 mi South 17.3 mph 25.3 mph 0.00 in Rain Light Rain
4:53 PM 54.0 °F - 50.0 °F 86% 29.84 in 10.0 mi South 15.0 mph 27.6 mph 0.00 in   Overcast
5:53 PM 55.9 °F - 51.1 °F 84% 29.83 in 10.0 mi SSW 16.1 mph 23.0 mph 0.00 in   Overcast
6:25 PM 55.4 °F - 51.8 °F 88% 29.81 in 9.0 mi South 15.0 mph - 0.01 in Rain Light Rain
6:41 PM 55.4 °F - 51.8 °F 88% 29.81 in 7.0 mi SSW 12.7 mph 23.0 mph 0.02 in Rain Light Rain
6:53 PM 55.9 °F - 52.0 °F 87% 29.82 in 10.0 mi SSW 15.0 mph 21.9 mph 0.02 in   Overcast
7:02 PM 55.4 °F - 51.8 °F 88% 29.81 in 10.0 mi SSW 13.8 mph - N/A   Overcast
7:53 PM 57.0 °F - 52.0 °F 83% 29.81 in 10.0 mi SSW 15.0 mph 23.0 mph 0.00 in Rain Light Rain
8:53 PM 57.9 °F - 53.1 °F 84% 29.79 in 8.0 mi South 18.4 mph 25.3 mph 0.03 in Rain Light Rain
9:53 PM 59.0 °F - 53.1 °F 81% 29.77 in 9.0 mi South 18.4 mph 23.0 mph 0.05 in Rain Light Rain
10:04 PM 59.0 °F - 53.6 °F 82% 29.75 in 9.0 mi South 17.3 mph 27.6 mph 0.02 in Rain , Thunderstorm Light Rain
10:19 PM 59.0 °F - 53.6 °F 82% 29.74 in 10.0 mi South 15.0 mph 26.5 mph 0.02 in Rain Light Rain
10:42 PM 60.8 °F - 51.8 °F 72% 29.73 in 9.0 mi South 19.6 mph 26.5 mph 0.03 in Rain , Thunderstorm Light Rain
10:53 PM 59.0 °F - 52.0 °F 78% 29.72 in 6.0 mi South 12.7 mph 24.2 mph 0.06 in Rain , Thunderstorm Rain
11:09 PM 60.8 °F - 51.8 °F 72% 29.71 in 10.0 mi SSE 12.7 mph 19.6 mph 0.01 in Rain Light Rain
11:49 PM 59.0 °F - 51.8 °F 77% 29.69 in 10.0 mi WNW 11.5 mph - 0.01 in Thunderstorm Overcast
11:53 PM 57.9 °F - 51.1 °F 78% 29.70 in 10.0 mi West 9.2 mph - 0.01 in Thunderstorm Overcast